Weather Roundup
Issued by NWS

Home | Current Version | Previous Version | Text Only | Print | Product List | Glossary On
Versions: 1 2 3 4 5 6 7 8 9 10 11 12 13 14 15 16 17 18 19 20 21 22 23 24 25 26 27 28 29 30 31 32 33 34 35 36 37 38 39 40 41 42 43 44 45 46 47 48 49 50
000
NZUS93 KARX 290259
HRRWXR

CURRENT HOURLY OBSERVATIONS ACROSS
MUCH OF THE UPPER MISSISSIPPI VALLEY
NATIONAL WEATHER SERVICE LA CROSSE WI
1000 PM CDT SUN JUN 28 2015


...SOUTHEAST MINNESOTA...


CITY           SKY/WX    TMP DP  RH WIND       PRES   REMARKS
ROCHESTER      MOCLDY    64  63  96 NW3       29.84R
ROCHESTER/MAYO CLOUDY    66  66  98 CALM      29.83S
WINONA         CLOUDY    66  64  94 CALM      29.81R
AUSTIN         PTCLDY    63  61  94 CALM      29.84R
ALBERT LEA       N/A     64  64 100 CALM      29.83S
DODGE CENTER   PTCLDY    63  61  94 CALM      29.84R
PRESTON        CLEAR     63  61  94 CALM      29.84R
OWATONNA       CLEAR     64  61  88 CALM      29.84R
FARIBAULT      MOCLDY    64  63  94 CALM      29.83S
$$

...ELSEWHERE IN MINNESOTA...


CITY           SKY/WX    TMP DP  RH WIND       PRES   REMARKS
MINNEAPOLIS    PTCLDY    69  63  81 W5        29.82R
INTNL FALLS    PTCLDY    60  58  92 CALM      29.79S
DULUTH         MOCLDY    64  60  87 CALM      29.81S
RED WING       PTCLDY    64  63  94 CALM      29.81R
REDWOOD FALLS  CLEAR     72  62  71 NW6       29.84R
MANKATO        MOCLDY    66  63  88 SW3       29.83S
WORTHINGTON    CLEAR     66  57  72 NW6       29.90R
FAIRMONT       PTCLDY    66  57  72 CALM      29.86R
$$

...SOUTHWEST WISCONSIN...


CITY           SKY/WX    TMP DP  RH WIND       PRES   REMARKS
LA CROSSE      MOCLDY    68  65  90 CALM      29.80R
PRAIRIE DU CHI PTCLDY    66  64  93 CALM      29.80S
BOSCOBEL       PTCLDY    66  64  93 CALM      29.81S
LONE ROCK      NOT AVBL
PLATTEVILLE    PTCLDY    65  62  93 SE5       29.83R
FORT MC COY    MOCLDY    66  60  83 CALM      29.82S
VIROQUA        FAIR      66  64  91 CALM      29.82S
WIS DELLS      CLOUDY    64  59  84 S5        29.82S
$$

...ELSEWHERE IN WISCONSIN...


CITY           SKY/WX    TMP DP  RH WIND       PRES   REMARKS
MILWAUKEE      CLOUDY    65  41  41 SE7       29.84S
MADISON        CLOUDY    64  60  87 SE6       29.84R
GREEN BAY      CLOUDY    69  57  65 S6        29.83S
EAU CLAIRE     MOCLDY    65  62  90 CALM      29.80S
BLACK RVR FLS  FAIR      66  62  86 CALM      29.80S
MEDFORD        MOCLDY    58  56  94 E3        29.83F
WAUSAU         PTCLDY    64  59  83 E3        29.82S
WIS RAPIDS     CLOUDY    65  61  87 SE5       29.83S
MARSHFIELD     RAIN      65  60  84 CALM      29.83R
RICE LAKE      PTCLDY    62  59  90 CALM      29.83S
$$

...NORTHEAST IOWA...


CITY           SKY/WX    TMP DP  RH WIND       PRES   REMARKS
DECORAH          N/A    N/A N/A N/A MISG        N/A
MASON CITY     PTCLDY    63  62  97 CALM      29.86R
CHARLES CITY   PTCLDY    64  64 100 W5        29.83R
OELWEIN          N/A     64  63  94 E3        29.83S
$$

...ELSEWHERE IN IOWA...


CITY           SKY/WX    TMP DP  RH WIND       PRES   REMARKS
DES MOINES     PTCLDY    76  64  66 N7        29.82R
IOWA CITY      MOCLDY    65  62  90 NE3       29.81S
FORT DODGE     PTCLDY    70  63  78 N5        29.85R
$$

...NORTHERN ILLINOIS...


CITY           SKY/WX    TMP DP  RH WIND       PRES   REMARKS
CHICAGO-OHARE  CLOUDY    68  60  75 SW6       29.84R
CHICAGO-MIDWAY CLOUDY    70  62  76 SW9       29.84R
MOLINE         CLOUDY    66  63  90 E6        29.80R
ROCKFORD       CLOUDY    64  60  87 E3        29.84S
PEORIA         MOCLDY    68  64  87 SE8       29.80S
$$

NOTE: "FAIR" INDICATES FEW OR NO CLOUDS BELOW 12,000 FEET WITH NO
SIGNIFICANT WEATHER AND/OR OBSTRUCTIONS TO VISIBILITY. WIND
SPEEDS ARE IN MILES-PER-HOUR.



USA.gov is the U.S. government's official web portal to all federal, state and local government web resources and services.